Dewpoint
59 50 49 38 25 25 27 25 29 20 29 49 48 49 51 57 57 53 70 71 72 74 75 75 77 76 75 75 75 75 76 76 76 76 76 76 76 76 75 76 76 76 75 74 74 73 72 72 72
57 43 33 29 24 23 23 24 21 21 41 48 49 49 50 55 62 66 67 72 74 75 75 75 77 77 75 75 75 75 75 75 75 75 75 75 75 75 75 76 76 76 75 73 73 72 71 71 71
42 40 26 27 24 24 21 23 22 21 25 39 44 46 50 56 63 66 70 72 75 75 75 75 77 77 76 75 75 75 75 75 75 75 75 75 75 75 75 76 76 75 75 74 73 73 72 71 71
34 27 25 21 27 22 23 22 21 21 24 42 44 45 48 53 61 67 72 73 74 74 75 76 77 77 76 75 75 75 75 75 75 75 75 75 75 75 75 76 76 76 75 74 73 73 73 72 71
29 26 22 22 20 22 22 20 18 31 41 41 43 46 48 55 70 71 72 71 72 74 75 76 77 77 76 75 75 75 75 75 75 75 75 75 75 75 75 76 75 75 75 74 74 73 73 73 72
22 26 22 23 22 23 19 19 17 16 18 26 39 34 35 33 69 70 71 70 71 73 75 76 76 77 76 76 75 75 75 75 75 75 75 75 75 75 75 76 75 75 75 74 74 73 73 73 73
19 22 23 22 23 19 18 17 16 17 16 17 30 31 30 25 28 70 70 69 71 73 75 75 74 76 76 76 75 75 75 75 75 74 75 75 75 75 75 76 76 75 75 75 74 73 73 73 72
20 19 32 25 19 18 19 17 17 14 12 15 20 23 24 26 42 71 70 71 72 72 73 74 74 74 74 75 76 75 75 75 75 75 74 75 75 75 75 75 75 75 75 75 74 74 73 73 72
20 15 19 17 17 16 16 13 17 16 13 13 17 19 24 26 63 70 70 71 72 72 72 73 74 73 73 73 75 75 75 75 75 75 75 74 73 74 74 75 75 75 75 75 74 74 73 73 72
19 15 14 18 17 13 14 14 15 15 14 15 14 15 18 27 47 68 68 69 70 71 71 72 73 73 73 73 74 74 74 74 74 74 74 73 73 72 73 74 75 75 75 75 75 74 73 72 71
17 16 16 16 16 16 14 14 14 12 15 12 11 15 13 22 25 28 52 66 68 67 71 72 73 73 73 73 73 73 74 72 73 72 72 72 70 70 72 72 73 74 74 73 74 73 72 71 70
26 15 16 15 17 14 14 15 14 12 12 14 13 16 18 17 16 20 26 24 26 59 69 72 73 73 73 72 73 73 73 72 72 71 71 71 70 70 70 70 70 70 72 72 72 72 71 70 70
19 15 17 15 16 14 16 13 12 11 12 14 17 19 19 19 16 19 19 21 25 48 69 71 72 72 72 72 72 72 72 72 71 71 71 71 70 70 69 69 69 70 71 71 71 70 69 70 69
17 17 16 15 16 16 12 13 12 15 17 17 19 19 19 19 17 20 21 23 28 35 65 70 70 71 71 71 72 71 72 72 72 72 71 71 71 71 70 70 70 70 70 71 70 70 68 69 69
19 14 13 13 13 15 15 12 13 17 19 19 20 19 21 22 23 20 22 24 28 39 64 69 69 70 70 70 71 71 71 71 71 72 72 72 72 71 71 70 69 70 70 70 70 69 69 68 68
16 15 15 13 17 15 13 10 14 19 22 23 25 24 23 23 23 25 26 27 33 33 41 65 69 68 68 68 69 69 70 70 70 70 70 71 72 72 70 70 69 70 69 70 70 69 68 68 68
13 16 16 10 18 21 17 13 16 20 23 23 24 25 25 25 27 30 30 30 31 35 41 53 59 66 66 68 69 69 69 70 70 71 70 69 69 71 71 70 70 70 70 69 69 69 68 68 67
10 9 15 11 15 22 19 19 21 23 24 24 25 25 25 26 29 43 45 39 37 38 43 48 52 55 58 57 56 54 55 54 56 59 63 66 69 70 69 70 69 69 69 68 68 68 68 68 67
12 12 14 17 21 20 20 21 22 23 30 32 31 29 27 36 41 45 47 50 52 52 52 53 53 53 52 50 48 51 53 54 56 57 59 60 63 66 68 69 69 69 68 68 68 68 68 68 68
18 19 19 20 23 23 21 21 23 26 32 34 34 34 38 41 41 43 45 47 50 52 53 54 55 55 55 56 57 56 56 57 57 58 58 59 60 62 63 65 67 68 68 68 68 68 67 68 67
22 20 20 19 23 22 21 17 22 30 33 34 35 37 38 39 40 43 45 49 52 53 54 55 55 56 55 56 55 55 55 54 53 55 57 58 59 61 62 63 65 67 68 67 68 68 67 66 66
17 23 22 22 21 11 21 10 21 27 33 34 35 35 36 37 39 41 46 47 50 52 51 51 51 50 50 53 53 53 53 52 54 55 57 57 58 59 61 61 63 65 67 67 66 68 68 67 66
20 25 24 24 22 22 20 20 22 28 30 34 36 37 36 37 37 38 39 40 43 44 44 46 46 46 48 49 50 50 50 52 53 53 53 53 55 57 59 59 62 63 64 66 67 67 67 66 66
26 24 21 23 21 15 18 21 21 26 32 33 36 37 36 35 36 37 39 40 40 40 41 43 44 45 46 47 47 47 47 48 47 48 49 51 54 55 56 57 59 61 62 63 64 66 67 66 65
23 20 15 5 17 16 22 23 22 21 32 35 35 35 35 36 35 36 36 37 39 39 41 44 43 44 46 46 46 46 47 47 47 48 49 50 50 52 52 55 57 59 61 62 64 65 64 64 64
21 22 18 7 12 16 25 22 23 28 35 37 36 36 37 36 35 35 37 37 37 41 42 44 44 44 45 46 46 46 46 45 45 46 47 49 50 51 53 54 57 58 60 60 61 61 63 64 64
24 23 23 22 25 23 24 25 27 35 37 38 37 37 38 37 35 36 37 37 37 38 39 43 44 44 44 45 45 45 45 46 45 47 48 47 50 50 51 53 55 57 59 60 61 61 62 63 65
24 25 23 24 19 20 23 24 23 32 34 35 37 37 36 35 38 39 36 37 38 38 39 43 44 43 44 44 44 44 45 46 46 47 47 48 48 50 50 51 53 55 57 59 61 62 63 63 64
19 20 24 25 25 21 20 21 28 28 34 34 36 36 36 33 38 35 37 38 38 38 39 41 42 43 43 43 43 44 44 45 45 46 46 47 49 49 49 50 52 54 56 59 60 61 62 62 62
25 25 24 22 19 24 24 23 28 31 31 33 32 32 32 36 36 37 38 38 38 38 38 39 42 42 43 43 44 44 44 45 44 45 46 47 47 49 49 50 52 55 58 59 60 59 58 58 57
Lifted_Index
8 8 7 4 2 1 2 3 3 3 2 0 -2 -2 -3 -4 -5 -5 -5 -5 -5 -5 -5 -5 -5 -4 -4 -3 -3 -3 -3 -2 -3 -3 -3 -3 -3 -3 -3 -3 -3 -3 -3 -2 -1 -1 -0 0 0
8 8 6 4 2 1 2 3 3 2 1 0 -1 -1 -2 -3 -4 -5 -6 -5 -5 -5 -5 -5 -5 -5 -4 -3 -3 -3 -3 -3 -3 -3 -3 -3 -3 -3 -3 -3 -3 -3 -3 -2 -1 -1 -0 0 1
8 7 5 3 2 1 2 3 3 1 0 1 1 1 -0 -2 -4 -5 -5 -5 -5 -5 -5 -5 -5 -5 -4 -4 -3 -3 -3 -3 -3 -3 -3 -3 -3 -3 -3 -4 -4 -3 -3 -2 -2 -1 -0 0 0
8 7 5 3 2 2 3 3 3 2 1 1 2 2 0 -2 -4 -5 -5 -5 -5 -5 -5 -5 -5 -5 -5 -4 -4 -3 -3 -3 -3 -3 -3 -3 -3 -3 -3 -4 -4 -4 -3 -2 -2 -1 -1 -0 0
7 6 4 2 2 3 3 4 4 3 2 2 2 2 0 -2 -4 -5 -5 -5 -5 -5 -5 -5 -5 -5 -5 -4 -4 -4 -3 -3 -3 -3 -3 -3 -3 -3 -3 -4 -4 -3 -3 -3 -2 -2 -1 -1 -0
6 5 3 2 3 3 4 4 4 3 3 3 3 2 1 -1 -3 -4 -5 -5 -5 -5 -5 -5 -5 -5 -5 -5 -4 -4 -4 -3 -3 -3 -3 -3 -3 -3 -4 -4 -4 -4 -3 -3 -2 -2 -1 -1 -1
5 5 4 3 3 4 4 5 4 4 4 4 4 4 3 3 1 -3 -5 -5 -5 -5 -5 -5 -5 -5 -5 -5 -4 -4 -4 -4 -4 -3 -3 -4 -4 -4 -4 -4 -4 -4 -4 -3 -3 -2 -1 -1 -1
5 5 4 3 3 4 5 5 5 5 5 6 6 5 5 6 3 -2 -5 -5 -5 -5 -5 -5 -5 -5 -5 -5 -5 -4 -4 -4 -4 -4 -4 -4 -4 -4 -4 -5 -5 -5 -4 -4 -3 -3 -2 -2 -1
6 5 4 3 4 4 5 5 6 6 6 7 7 7 8 7 2 -3 -5 -5 -5 -5 -5 -5 -5 -4 -4 -4 -4 -4 -4 -4 -4 -4 -4 -4 -3 -4 -4 -4 -5 -5 -5 -4 -4 -3 -3 -2 -2
6 5 4 5 5 6 6 6 6 6 6 7 7 8 9 8 4 -0 -2 -3 -4 -5 -5 -5 -4 -4 -4 -4 -4 -4 -4 -4 -4 -4 -3 -3 -3 -3 -3 -4 -4 -5 -5 -5 -4 -4 -3 -2 -2
6 5 5 6 7 7 7 6 6 6 6 7 8 8 9 9 8 6 4 2 0 -1 -3 -4 -4 -4 -4 -4 -4 -4 -4 -3 -3 -3 -3 -2 -2 -2 -2 -3 -3 -4 -4 -4 -4 -4 -3 -2 -2
6 6 6 7 8 8 8 7 7 7 7 8 8 9 9 10 10 10 9 8 7 3 -1 -3 -3 -4 -4 -4 -4 -3 -3 -3 -3 -2 -2 -2 -2 -2 -2 -2 -2 -3 -3 -4 -4 -3 -3 -2 -2
7 7 8 8 9 9 9 8 8 8 8 9 9 9 9 10 10 10 11 11 10 7 1 -2 -3 -4 -4 -4 -4 -3 -3 -3 -2 -2 -2 -2 -2 -2 -2 -2 -2 -2 -3 -3 -3 -3 -2 -2 -1
9 9 9 9 9 9 9 9 9 9 9 9 10 10 10 10 10 10 11 11 11 8 3 -2 -3 -4 -4 -3 -3 -3 -3 -3 -3 -3 -2 -2 -2 -2 -2 -2 -2 -2 -2 -2 -2 -2 -2 -2 -2
10 9 9 9 10 10 9 9 9 9 10 9 9 10 10 10 10 10 10 11 11 9 4 -0 -3 -3 -4 -3 -3 -3 -3 -3 -3 -3 -3 -3 -2 -3 -3 -2 -2 -2 -2 -2 -2 -2 -2 -2 -2
8 8 8 9 10 10 9 8 8 9 10 9 9 9 10 10 10 10 10 10 10 9 7 2 -2 -3 -4 -4 -3 -3 -3 -3 -3 -3 -3 -2 -2 -2 -2 -2 -2 -2 -2 -2 -2 -2 -2 -2 -2
7 6 6 8 9 9 9 8 8 9 10 9 9 9 9 9 10 9 9 9 9 9 8 3 -1 -3 -4 -4 -4 -3 -3 -2 -1 -1 -1 -1 -1 -1 -1 -1 -1 -1 -2 -2 -2 -2 -2 -2 -2
6 6 6 7 8 9 8 8 8 9 9 9 8 8 9 9 9 9 8 8 8 8 8 4 0 -2 -2 -2 -2 -2 -1 1 2 3 3 2 1 0 -0 -1 -1 -1 -1 -1 -2 -2 -2 -2 -2
7 7 6 7 8 8 7 7 8 8 8 8 8 8 8 8 8 8 7 7 7 8 7 6 3 2 1 1 2 2 3 4 4 5 5 4 4 3 2 0 -1 -1 -1 -2 -2 -2 -2 -2 -3
7 7 6 7 7 7 7 6 7 8 7 7 7 7 7 7 7 6 6 6 6 6 6 5 4 4 3 3 4 4 4 5 4 4 4 4 4 4 3 2 0 -1 -2 -2 -2 -2 -2 -3 -3
7 6 6 6 6 6 5 5 6 6 6 6 6 6 6 6 6 5 5 5 5 5 4 4 3 3 3 3 3 4 4 4 4 4 4 4 3 3 3 2 1 -1 -2 -3 -3 -3 -3 -3 -3
6 7 6 6 5 4 4 3 4 5 5 5 5 5 5 5 5 5 4 4 4 4 4 3 3 3 3 3 3 4 4 4 4 4 4 4 4 3 3 2 1 -1 -2 -3 -4 -4 -3 -3 -3
6 6 6 6 4 3 3 2 3 4 4 4 5 5 5 5 5 5 4 4 4 4 4 4 4 4 4 4 4 4 4 4 4 4 4 5 4 4 4 3 2 0 -1 -3 -3 -4 -4 -3 -3
5 5 5 4 3 2 2 2 2 3 4 4 4 4 4 5 5 5 5 5 5 5 5 5 5 5 5 5 5 5 5 5 6 6 6 6 6 5 5 4 3 2 0 -1 -2 -3 -3 -3 -3
5 4 3 2 1 2 2 2 3 4 4 4 4 4 4 4 4 5 5 5 5 4 4 5 5 5 5 5 5 6 6 6 7 7 7 7 7 6 6 5 4 3 1 0 -1 -2 -2 -3 -3
5 4 3 1 1 2 3 3 4 4 4 3 3 3 3 4 4 4 5 4 4 4 4 4 5 5 5 5 5 6 7 7 7 7 7 7 7 7 6 5 4 3 2 1 1 -0 -2 -2 -3
5 4 4 3 2 2 2 3 4 5 4 3 3 3 3 3 4 4 4 4 4 4 4 4 4 4 5 5 6 6 7 7 8 8 7 7 7 7 6 6 5 4 3 2 1 0 -1 -2 -3
5 5 4 4 2 1 2 3 4 4 4 3 2 2 3 3 3 4 3 3 3 3 3 4 4 4 5 5 6 7 7 7 7 8 8 8 7 7 6 6 6 5 3 2 1 0 -1 -2 -3
4 4 4 4 3 2 2 3 5 5 3 2 1 1 2 3 3 3 3 3 3 3 3 4 4 5 5 6 7 7 7 7 7 8 8 8 7 6 6 6 6 4 3 2 1 -0 -1 -2 -2
4 5 4 4 3 3 3 4 5 5 3 2 1 1 1 2 3 3 3 3 3 3 3 4 4 5 6 7 7 7 7 8 8 8 8 8 7 6 5 6 5 4 2 2 1 -0 -1 -1 -2